This is the latest recevied weather packets stored in our database for station/object KC1BRV. If no packets are shown the sender has not sent any weather packets the latest 10 day(s).
| Time | Temp. | Humidity | Pressure | Rain* | Wind** | Luminosity | Snow |
|---|---|---|---|---|---|---|---|
| 1777550032 | 8.33° C | 98% | 1009 hPa | 0 mm | - | 33 W/m² | - |
| 1777549730 | 8.33° C | 98% | 1009 hPa | 0 mm | - | 27 W/m² | - |
| 1777549430 | 8.33° C | 98% | 1008.9 hPa | 0 mm | - | 41 W/m² | - |
| 1777549127 | 8.33° C | 98% | 1008.7 hPa | 0 mm | - | 47 W/m² | - |
| 1777548823 | 8.33° C | 98% | 1009 hPa | 0 mm | - | 40 W/m² | - |
| 1777548521 | 8.33° C | 98% | 1008.9 hPa | 1.27 mm | - | 45 W/m² | - |
| 1777548217 | 8.33° C | 98% | 1008.8 hPa | 0 mm | - | 33 W/m² | - |
| 1777547914 | 8.33° C | 98% | 1008.8 hPa | 0 mm | - | 21 W/m² | - |
| 1777547610 | 8.33° C | 98% | 1008.9 hPa | 0 mm | - | 27 W/m² | - |
| 1777547307 | 8.33° C | 98% | 1008.9 hPa | 0 mm | - | 32 W/m² | - |
| 1777547004 | 8.33° C | 98% | 1008.8 hPa | 0 mm | - | 37 W/m² | - |
| 1777546701 | 8.33° C | 98% | 1008.8 hPa | 0 mm | - | 33 W/m² | - |
| 1777546398 | 8.33° C | 98% | 1008.7 hPa | 0 mm | - | 15 W/m² | - |
| 1777546095 | 7.78° C | 98% | 1008.7 hPa | 0 mm | - | 8 W/m² | - |
| 1777545790 | 7.78° C | 98% | 1008.4 hPa | 0 mm | - | 7 W/m² | - |
| 1777545488 | 7.78° C | 98% | 1008.4 hPa | 0 mm | - | 7 W/m² | - |
| 1777545185 | 7.78° C | 98% | 1008.4 hPa | 0 mm | - | 6 W/m² | - |
| 1777544883 | 7.78° C | 98% | 1008.6 hPa | 0 mm | - | 6 W/m² | - |
| 1777544578 | 7.78° C | 98% | 1008.6 hPa | 0 mm | - | 6 W/m² | - |
| 1777544275 | 7.78° C | 98% | 1008.5 hPa | 0 mm | - | 5 W/m² | - |
| 1777543972 | 7.78° C | 97% | 1008.5 hPa | 0 mm | - | 5 W/m² | - |
| 1777543668 | 7.78° C | 97% | 1008.6 hPa | 0 mm | - | 4 W/m² | - |
| 1777543364 | 8.33° C | 97% | 1008.4 hPa | 0 mm | - | 3 W/m² | - |
| 1777543060 | 8.33° C | 97% | 1008.3 hPa | 0 mm | - | 2 W/m² | - |
| 1777542756 | 7.78° C | 97% | 1008.2 hPa | 0 mm | - | 1 W/m² | - |
* Rain latest hour (hover to see other rain measurements)
** Current wind speed in m/s (hover to see current wind gust speed)